Location: Saint-Gilles les Bains
(21.0539°S, 55.2287°E)
Time: 19:24:40
(UTC+04:00)

Hubble Space Telescope - Pass Details

Date: 09 December 2023
Orbit: 516 x 519 km, 28.5° (Epoch: 22 February)

Event Time Altitude Azimuth Distance (km) Brightness Sun altitude
Exits shadow 03:32:08 47° 192° (SSW) 700 1.4 -24.3°
Maximum altitude 03:32:39 51° 164° (SSE) 667 1.4 -24.2°
Drops below altitude 10° 03:36:37 10° 87° (E) 1,758 4.0 -23.5°
Sets 03:38:54 0° 82° (E) 2,643 4.9 -23.0°
